#timestamp,LO_Frequency,Hit,StdDev 
1587880815.1,286046991.8,N
1587880816.0,286046991.8,N
1587880835.8,286046998.5,N
1587880855.6,286047000.2,N
1587880875.5,286047007.8,N
1587880895.3,286047018.8,Y
1587880915.1,286047026.7,P
1587880935.9,286047029.9,N
1587880955.7,286047026.5,N
1587880975.6,286047026.9,N
1587880995.4,286047031.3,N
1587881015.2,286047031.0,N
1587881035.1,286047030.3,N
1587881036.0,286047030.3,N
1587881055.8,286047029.5,N
1587881075.6,286047027.9,N
1587881095.5,286047029.5,Y
1587881115.3,286046995.8,P
1587881135.2,286046987.8,N
1587881155.9,286046976.8,N
1587881175.7,286046966.3,N
1587881195.6,286046972.2,N
1587881215.4,286046973.4,N
1587881235.2,286046975.5,N
1587881255.1,286046975.9,N
1587881256.0,286046975.9,N
1587881275.8,286046981.0,N
1587881295.7,286046977.6,N
1587881315.5,286046980.2,N
1587881335.3,286046987.3,N
1587881355.2,286046992.7,N
1587881375.0,286046994.8,N
1587881375.9,286046994.8,N
1587881395.7,286046991.4,N
1587881415.6,286046988.8,N
1587881435.4,286046987.3,N
1587881455.3,286046978.3,N
1587881475.1,286046970.6,N
1587881476.0,286046970.6,N
1587881495.8,286046957.1,Y
1587881515.7,286046966.9,P
1587881535.5,286046962.0,P
1587881555.3,286046955.0,P
1587881575.2,286046951.4,Y
1587881595.0,286046979.5,P
1587881595.9,286046979.5,P
1587881615.8,286046969.3,P
1587881635.6,286046967.5,Y
1587881655.4,286046989.2,P
1587881675.3,286046990.9,N
1587881695.1,286046989.2,N
1587881715.9,286046986.2,N
1587881735.7,286046981.5,N
1587881755.5,286046976.3,Y
1587881775.4,286046990.5,P
1587881795.2,286046991.4,P
1587881815.0,286046990.9,P
1587881816.0,286046990.9,Y
1587881835.8,286046993.6,P
1587881855.6,286046988.6,P
1587881875.5,286046987.0,P
1587881895.3,286046984.1,Y
1587881915.2,286046991.4,P
1587881935.9,286046986.1,P
1587881955.7,286046986.3,P
1587881975.6,286046982.2,Y
1587881995.4,286046992.1,P
1587882015.2,286046991.8,P
1587882035.1,286046990.7,P
1587882036.0,286046990.7,Y
1587882055.8,286047003.5,P
1587882075.7,286047005.8,N
1587882095.5,286047002.6,N
1587882115.3,286047006.3,N
1587882135.2,286047005.7,N
1587882155.0,286047004.9,N
1587882155.9,286047004.9,N
1587882175.8,286047006.4,N
1587882195.6,286047010.0,N
1587882215.4,286047007.4,N
1587882235.3,286047006.6,N
1587882255.1,286047000.8,N
1587882275.9,286046994.6,N
1587882295.7,286046995.5,N
1587882315.5,286047001.4,N
1587882335.4,286047010.7,N
1587882355.2,286047013.2,N
1587882375.1,286047018.0,Y
1587882376.0,286047018.0,P
1587882395.8,286047017.0,N
1587882415.6,286047020.0,P
1587882435.5,286047025.1,Y
1587882455.3,286047010.8,P
1587882475.1,286047004.1,N
1587882495.9,286046999.1,N
1587882515.7,286046996.5,N
1587882535.6,286046997.4,N
1587882555.4,286046991.3,N
1587882575.2,286046989.9,N
1587882595.1,286046985.0,N
1587882596.0,286046985.0,N
1587882615.8,286046975.7,N
1587882635.6,286046969.2,N
1587882655.5,286046968.4,N
1587882675.3,286046969.1,N
1587882695.2,286046967.4,N
1587882715.9,286046968.8,N
1587882735.7,286046973.5,N
1587882755.6,286046968.4,N
1587882775.4,286046967.9,N
1587882795.3,286046975.2,N
1587882815.1,286046978.6,N
1587882816.0,286046978.6,N
1587882835.8,286046972.9,N
1587882855.7,286046975.7,N
1587882875.5,286046979.1,N
1587882895.3,286046987.1,N
1587882915.2,286046994.1,N
1587882935.0,286046992.3,N
1587882935.9,286046992.3,N
1587882955.8,286046987.7,N
1587882975.6,286046984.5,N
1587882995.4,286046979.5,N
1587883015.3,286046972.8,N
1587883035.1,286046982.9,N
1587883055.8,286046984.4,N
1587883075.7,286046981.2,N
1587883095.5,286046976.5,N
1587883115.4,286046972.7,Y
1587883135.2,286046990.5,P
1587883155.0,286046989.0,N
1587883155.9,286046989.0,N
1587883175.8,286046994.3,N
1587883195.6,286046996.5,N
1587883215.4,286046999.4,N
1587883235.3,286046996.6,N
1587883255.1,286046996.2,N
1587883275.9,286046992.7,N
1587883295.7,286046990.1,N
1587883315.5,286046986.8,N
1587883335.4,286046981.8,Y
1587883355.2,286046985.5,P
1587883375.0,286046987.9,P
1587883376.0,286046987.9,P
1587883395.8,286046989.7,Y
1587883415.6,286046998.6,P
1587883435.5,286047005.7,N
1587883455.3,286047011.4,N
1587883475.1,286047011.0,N
1587883495.9,286047014.8,N
1587883515.7,286047008.2,N
1587883535.6,286047004.6,N
1587883555.4,286047003.7,N
1587883575.2,286046998.8,N
1587883595.1,286046990.0,N
1587883596.0,286046990.0,N
1587883615.8,286046980.9,N
1587883635.6,286046980.4,N
1587883655.5,286046975.4,N
1587883675.3,286046972.0,N
1587883695.2,286046969.7,N
1587883715.9,286046968.3,N
1587883735.7,286046965.4,N
1587883755.6,286046965.0,N
1587883775.4,286046971.3,N
1587883795.2,286046976.7,N
1587883815.1,286046976.4,N
1587883816.0,286046976.4,N
1587883835.8,286046974.1,N
1587883855.7,286046969.5,N
1587883875.5,286046969.3,N
1587883895.3,286046976.9,N
1587883915.2,286046981.1,N
1587883935.9,286046983.8,N
1587883955.7,286046987.8,N
1587883975.6,286046977.5,N
1587883995.4,286046969.4,N
1587884015.3,286046962.4,N
1587884035.1,286046959.8,N
1587884036.0,286046959.8,N
1587884055.8,286046962.6,N
1587884075.7,286046962.3,Y
1587884095.5,286046983.5,P
1587884115.4,286046979.5,P
1587884135.2,286046978.7,P
1587884155.0,286046971.6,Y
1587884155.9,286046971.6,P
1587884175.8,286046985.6,P
1587884195.6,286046980.3,P
1587884215.5,286046975.5,Y
1587884235.3,286046989.3,P
1587884255.2,286046985.0,N
1587884275.9,286046979.0,P
1587884295.8,286046983.4,Y
1587884315.6,286047000.1,P
1587884335.5,286047003.7,N
1587884355.3,286047005.5,N
1587884375.1,286047005.1,N
1587884395.9,286047003.6,N
